• In Uzbekistan
  • List of Countries
  • For 7 days
  • Water Temperature
  • Satellite Maps
  • Weather Map
  • Weather Widgets
  • user-avatar
    Login

    Hourly Weather Lubcza

    Today, 24 May, Thursday

    Time Temperature Precipitation Wind Pressure Humidity
    00:00 +15°C° 0.1 mm 2 mps 744 mmHg 93%
    01:00 +14°C° 0 mm 2 mps 744 mmHg 94%
    02:00 +14°C° 0.1 mm 2 mps 744 mmHg 94%
    03:00 +14°C° 0.1 mm 2 mps 744 mmHg 94%
    04:00 +13°C° 0.1 mm 2 mps 744 mmHg 94%
    05:00 +14°C° 0 mm 2 mps 744 mmHg 92%
    06:00 +16°C° 0 mm 2 mps 744 mmHg 89%
    07:00 +17°C° 0 mm 3 mps 745 mmHg 86%
    08:00 +19°C° 0 mm 3 mps 745 mmHg 82%
    09:00 +20°C° 0 mm 3 mps 745 mmHg 77%
    10:00 +21°C° 0 mm 4 mps 745 mmHg 73%
    11:00 +22°C° 0.1 mm 4 mps 744 mmHg 69%
    12:00 +22°C° 0.1 mm 4 mps 744 mmHg 65%
    13:00 +23°C° 0.1 mm 4 mps 744 mmHg 62%
    14:00 +23°C° 0.1 mm 4 mps 744 mmHg 62%
    15:00 +23°C° 0.1 mm 4 mps 743 mmHg 62%
    16:00 +23°C° 0.1 mm 4 mps 743 mmHg 62%
    17:00 +21°C° 0 mm 4 mps 743 mmHg 67%
    18:00 +20°C° 0 mm 3 mps 743 mmHg 73%
    19:00 +18°C° 0 mm 3 mps 743 mmHg 79%
    20:00 +17°C° 0 mm 2 mps 743 mmHg 82%
    21:00 +16°C° 0 mm 2 mps 743 mmHg 86%
    22:00 +14°C° 0 mm 2 mps 743 mmHg 89%
    23:00 +14°C° 0 mm 2 mps 743 mmHg 90%

    Tomorrow, 25 May, Friday

    Time Temperature Precipitation Wind Pressure Humidity
    00:00 +13°C° 0 mm 1 mps 743 mmHg 91%
    01:00 +13°C° 0 mm 1 mps 743 mmHg 92%
    02:00 +12°C° 0 mm 1 mps 743 mmHg 93%
    03:00 +12°C° 0 mm 1 mps 743 mmHg 94%
    04:00 +12°C° 0 mm 1 mps 743 mmHg 95%
    05:00 +14°C° 0 mm 1 mps 743 mmHg 90%
    06:00 +15°C° 0 mm 2 mps 743 mmHg 85%
    07:00 +17°C° 0 mm 2 mps 743 mmHg 80%
    08:00 +19°C° 0 mm 2 mps 743 mmHg 74%
    09:00 +20°C° 0 mm 3 mps 743 mmHg 68%
    10:00 +22°C° 0 mm 3 mps 743 mmHg 62%
    11:00 +22°C° 0.1 mm 3 mps 743 mmHg 61%
    12:00 +24°C° 0.1 mm 3 mps 743 mmHg 59%
    13:00 +24°C° 0.1 mm 3 mps 743 mmHg 58%
    14:00 +24°C° 0.3 mm 3 mps 743 mmHg 62%
    15:00 +24°C° 0.3 mm 3 mps 742 mmHg 66%
    16:00 +22°C° 0.3 mm 3 mps 742 mmHg 70%
    17:00 +21°C° 0.2 mm 2 mps 742 mmHg 76%
    18:00 +20°C° 0.2 mm 2 mps 743 mmHg 82%
    19:00 +19°C° 0.2 mm 1 mps 743 mmHg 88%
    20:00 +19°C° 0 mm 1 mps 743 mmHg 90%
    21:00 +18°C° 0 mm 1 mps 743 mmHg 92%
    22:00 +16°C° 0 mm 1 mps 743 mmHg 94%
    23:00 +16°C° 0 mm 1 mps 744 mmHg 94%

    Day after tomorrow, 26 May, Saturday

    Time Temperature Precipitation Wind Pressure Humidity
    00:00 +15°C° 0 mm 1 mps 744 mmHg 95%
    01:00 +15°C° 0 mm 1 mps 744 mmHg 95%
    02:00 +15°C° 0 mm 1 mps 744 mmHg 95%
    03:00 +15°C° 0 mm 1 mps 744 mmHg 95%
    04:00 +14°C° 0 mm 1 mps 744 mmHg 96%
    05:00 +16°C° 0 mm 1 mps 744 mmHg 93%
    06:00 +18°C° 0 mm 1 mps 744 mmHg 90%
    07:00 +19°C° 0 mm 1 mps 745 mmHg 88%
    08:00 +21°C° 0.3 mm 1 mps 745 mmHg 84%
    09:00 +22°C° 0.3 mm 1 mps 745 mmHg 80%
    10:00 +23°C° 0.3 mm 2 mps 745 mmHg 76%
    11:00 +24°C° 0.5 mm 2 mps 745 mmHg 73%
    12:00 +25°C° 0.5 mm 3 mps 744 mmHg 70%
    13:00 +26°C° 0.5 mm 3 mps 744 mmHg 67%
    14:00 +25°C° 0.3 mm 3 mps 744 mmHg 69%
    15:00 +25°C° 0.3 mm 3 mps 744 mmHg 71%
    16:00 +25°C° 0.3 mm 3 mps 744 mmHg 74%
    17:00 +24°C° 0.3 mm 3 mps 744 mmHg 78%
    18:00 +21°C° 0.3 mm 3 mps 744 mmHg 83%
    19:00 +20°C° 0.3 mm 3 mps 744 mmHg 87%
    20:00 +19°C° 0 mm 3 mps 744 mmHg 89%
    21:00 +19°C° 0 mm 2 mps 744 mmHg 90%
    22:00 +18°C° 0 mm 2 mps 744 mmHg 91%
    23:00 +17°C° 0 mm 2 mps 744 mmHg 92%

    27 May, Sunday

    Time Temperature Precipitation Wind Pressure Humidity
    00:00 +17°C° 0 mm 2 mps 743 mmHg 92%
    01:00 +16°C° 0 mm 2 mps 743 mmHg 93%
    02:00 +16°C° 0 mm 1 mps 743 mmHg 94%
    03:00 +15°C° 0 mm 1 mps 743 mmHg 94%
    04:00 +15°C° 0 mm 1 mps 743 mmHg 95%
    05:00 +16°C° 0 mm 1 mps 743 mmHg 92%
    06:00 +19°C° 0 mm 1 mps 744 mmHg 88%
    07:00 +20°C° 0 mm 1 mps 744 mmHg 85%
    08:00 +21°C° 0.2 mm 1 mps 744 mmHg 82%
    09:00 +23°C° 0.2 mm 2 mps 744 mmHg 78%
    10:00 +24°C° 0.2 mm 2 mps 744 mmHg 75%
    11:00 +24°C° 0.4 mm 2 mps 744 mmHg 74%
    12:00 +25°C° 0.4 mm 2 mps 744 mmHg 72%
    13:00 +26°C° 0.4 mm 2 mps 743 mmHg 70%
    14:00 +25°C° 1 mm 2 mps 743 mmHg 72%
    15:00 +25°C° 1 mm 3 mps 743 mmHg 74%
    16:00 +25°C° 1 mm 3 mps 743 mmHg 77%
    17:00 +24°C° 0.4 mm 3 mps 743 mmHg 81%
    18:00 +23°C° 0.4 mm 2 mps 743 mmHg 85%
    19:00 +21°C° 0.4 mm 2 mps 744 mmHg 90%
    20:00 +20°C° 0 mm 2 mps 744 mmHg 92%
    21:00 +19°C° 0 mm 2 mps 744 mmHg 93%
    22:00 +18°C° 0 mm 2 mps 744 mmHg 95%
    23:00 +17°C° 0 mm 2 mps 744 mmHg 96%

    28 May, Monday

    Time Temperature Precipitation Wind Pressure Humidity
    00:00 +17°C° 0 mm 2 mps 744 mmHg 96%
    01:00 +16°C° 0 mm 2 mps 744 mmHg 97%
    02:00 +16°C° 0 mm 2 mps 744 mmHg 97%
    03:00 +15°C° 0 mm 2 mps 745 mmHg 97%
    04:00 +15°C° 0 mm 2 mps 745 mmHg 97%
    05:00 +16°C° 0 mm 2 mps 745 mmHg 94%
    06:00 +18°C° 0 mm 3 mps 745 mmHg 90%
    07:00 +19°C° 0 mm 3 mps 745 mmHg 86%
    08:00 +21°C° 0 mm 4 mps 745 mmHg 79%
    09:00 +22°C° 0 mm 4 mps 746 mmHg 72%
    10:00 +25°C° 0 mm 5 mps 746 mmHg 65%
    11:00 +25°C° 0.2 mm 5 mps 746 mmHg 66%
    12:00 +26°C° 0.2 mm 5 mps 746 mmHg 66%
    13:00 +26°C° 0.2 mm 5 mps 745 mmHg 66%
    14:00 +26°C° 0.3 mm 5 mps 745 mmHg 67%
    15:00 +26°C° 0.3 mm 5 mps 745 mmHg 67%
    16:00 +25°C° 0.3 mm 5 mps 745 mmHg 68%
    17:00 +23°C° 0 mm 5 mps 745 mmHg 72%
    18:00 +22°C° 0 mm 5 mps 745 mmHg 77%
    19:00 +20°C° 0 mm 4 mps 745 mmHg 81%
    20:00 +19°C° 0 mm 4 mps 745 mmHg 84%
    21:00 +18°C° 0 mm 4 mps 745 mmHg 86%
    22:00 +17°C° 0 mm 4 mps 746 mmHg 88%
    23:00 +17°C° 0 mm 3 mps 746 mmHg 89%

    29 May, Tuesday

    Time Temperature Precipitation Wind Pressure Humidity
    00:00 +16°C° 0 mm 3 mps 746 mmHg 89%
    01:00 +14°C° 0 mm 3 mps 746 mmHg 90%
    02:00 +14°C° 0 mm 3 mps 746 mmHg 91%
    03:00 +14°C° 0 mm 3 mps 746 mmHg 91%
    04:00 +13°C° 0 mm 3 mps 746 mmHg 92%
    05:00 +16°C° 0 mm 3 mps 746 mmHg 87%
    06:00 +18°C° 0 mm 4 mps 746 mmHg 82%
    07:00 +20°C° 0 mm 4 mps 746 mmHg 77%
    08:00 +21°C° 0 mm 4 mps 746 mmHg 72%
    09:00 +23°C° 0 mm 4 mps 746 mmHg 67%
    10:00 +26°C° 0 mm 5 mps 746 mmHg 61%
    11:00 +26°C° 0 mm 5 mps 746 mmHg 60%
    12:00 +26°C° 0 mm 5 mps 746 mmHg 58%
    13:00 +27°C° 0 mm 5 mps 745 mmHg 57%
    14:00 +27°C° 0 mm 5 mps 745 mmHg 58%
    15:00 +26°C° 0 mm 5 mps 745 mmHg 60%
    16:00 +26°C° 0 mm 5 mps 745 mmHg 61%
    17:00 +25°C° 0 mm 5 mps 745 mmHg 67%
    18:00 +22°C° 0 mm 5 mps 744 mmHg 73%
    19:00 +20°C° 0 mm 4 mps 744 mmHg 79%
    20:00 +19°C° 0 mm 4 mps 744 mmHg 82%
    21:00 +18°C° 0 mm 3 mps 744 mmHg 85%
    22:00 +17°C° 0 mm 3 mps 744 mmHg 88%
    23:00 +17°C° 0 mm 2 mps 744 mmHg 90%
    Show more